Location: Staunton
(38.1490°N, 79.0720°W)
Time: 11:16:42
(UTC-04:00)

ISS - Pass Details

Date: 28 May 2020
Orbit: 417 x 420 km, 51.6° (Epoch: 26 May)

Event Time Altitude Azimuth Distance (km) Brightness Sun altitude
Rises 21:46:30 0° 319° (NW) 2,364 2.0 -12.9°
Reaches altitude 10° 21:49:29 10° 348° (NNW) 1,499 -0.1 -13.4°
Maximum altitude 21:51:13 13° 19° (NNE) 1,312 -1.0 -13.6°
Drops below altitude 10° 21:52:56 10° 50° (NE) 1,497 -1.0 -13.9°
Enters shadow 21:54:21 - 67° (ENE) 1,856 -0.7 -14.1°
